Owosso, MI

3:39 AM EDT on September 30, 2016 (GMT -0400)
Owosso

Weather History for KRNP - April, 2013

Change the Weather History Date:

Friday, April 12, 2013

  Actual Average (KFNT) Record (KFNT)
Temperature  
Mean Temperature 38 °F 45 °F  
Max Temperature 43 °F 56 °F 81 °F (1977)
Min Temperature 34 °F 34 °F 19 °F (1950)
Degree Days  
Heating Degree Days 26 20  
Month to date heating degree days 265  
Since 1 July heating degree days 6310  
Cooling Degree Days 0 0  
Month to date cooling degree days 0  
Year to date cooling degree days 0  
Moisture  
Dew Point 35 °F    
Average Humidity 87    
Maximum Humidity 96    
Minimum Humidity 68    
Precipitation  
Precipitation 0.00 in 0.10 in 1.03 in (1996)
Month to date precipitation 1.13  
Year to date precipitation 6.15  
Snow  
Snow 0.00 in 0.10 in 1.90 in ()
Month to date snowfall 1.4  
Since 1 July snowfall 46.5  
Snow Depth -    
Sea Level Pressure  
Sea Level Pressure 29.63 in    
Wind  
Wind Speed 7 mph (WSW)    
Max Wind Speed 17 mph    
Max Gust Speed 24 mph    
Visibility 7 miles    
Events Snow    
T = Trace of Precipitation, MM = Missing Value Source: NWS Daily Summary

Daily Weather History Graph

Daily Weather History Graph

Search for Another Location

Airport or City:

Trip Planner

Search our weather history database for the weather conditions in past years. The results will help you decide how hot, cold, wet, or windy it might be!

Date:

Astronomy

Apr. 12, 2013 Rise Set
Actual Time 6:59 AM EDT 8:15 PM EDT
Civil Twilight 6:30 AM EDT 8:45 PM EDT
Nautical Twilight 5:54 AM EDT 9:20 PM EDT
Astronomical Twilight 5:17 AM EDT 9:57 PM EDT
Moon 8:05 AM EDT (4/12) 10:49 PM EDT (4/12)
Length of Visible Light 14h 15m
Length of Day
13h 16m
Waxing Crescent, 5% of the Moon is Illuminated
Apr 12
Waxing Crescent
Apr 18
First Quarter
Apr 25
Full
May 2
Last Quarter
May 9
New

Hourly Weather History & Observations

Time (EDT) Temp. Windchill Dew Point Humidity Pressure Visibility Wind Dir Wind Speed Gust Speed Precip Events Conditions
12:14 AM 35.8 °F 31.9 °F 33.8 °F 92% 29.68 in 4.0 mi North 4.6 mph - N/A Snow Light Snow
12:35 AM 35.6 °F 31.7 °F 33.8 °F 93% 29.67 in 2.5 mi North 4.6 mph - N/A Snow Light Snow
12:55 AM 35.2 °F 29.5 °F 33.8 °F 94% 29.66 in 4.0 mi North 6.9 mph - N/A Snow Light Snow
1:14 AM 35.1 °F 29.3 °F 33.4 °F 94% 29.63 in 2.5 mi NNE 6.9 mph - N/A Snow Light Snow
1:35 AM 35.1 °F 29.3 °F 33.8 °F 95% 29.63 in 7.0 mi North 6.9 mph - N/A   Overcast
2:14 AM 34.9 °F 27.1 °F 33.4 °F 94% 29.62 in 2.5 mi North 10.4 mph - N/A Snow Light Snow
2:35 AM 34.7 °F 28.1 °F 33.3 °F 94% 29.62 in 2.5 mi North 8.1 mph - N/A Snow Light Snow
2:55 AM 34.3 °F 27.0 °F 32.9 °F 94% 29.63 in 2.5 mi North 9.2 mph - N/A Snow Light Snow
3:14 AM 34.2 °F 25.2 °F 32.9 °F 95% 29.60 in 3.0 mi North 12.7 mph - N/A Snow Light Snow
3:35 AM 34.2 °F 26.8 °F 32.9 °F 95% 29.59 in 5.0 mi NNE 9.2 mph 16.1 mph N/A Snow Light Snow
3:54 AM 34.2 °F 26.8 °F 32.9 °F 95% 29.59 in 7.0 mi NNE 9.2 mph - N/A Snow Light Snow
4:14 AM 34.0 °F 26.6 °F 32.9 °F 96% 29.59 in 5.0 mi NNE 9.2 mph - N/A Snow Light Snow
4:35 AM 34.2 °F 28.2 °F 32.9 °F 95% 29.60 in 5.0 mi NNE 6.9 mph - N/A   Overcast
4:54 AM 34.2 °F 27.5 °F 32.9 °F 95% 29.59 in 4.0 mi NNE 8.1 mph - N/A   Overcast
5:15 AM 34.2 °F 29.0 °F 32.9 °F 95% 29.59 in 5.0 mi NNE 5.8 mph - N/A   Overcast
5:35 AM 34.2 °F 29.0 °F 32.9 °F 95% 29.57 in 7.0 mi NE 5.8 mph - N/A   Overcast
5:54 AM 34.2 °F 27.5 °F 32.9 °F 95% 29.56 in 7.0 mi NE 8.1 mph - N/A   Overcast
6:15 AM 34.2 °F 28.2 °F 32.9 °F 95% 29.55 in 10.0 mi NE 6.9 mph - N/A   Overcast
6:35 AM 34.2 °F 31.2 °F 32.9 °F 95% 29.55 in 10.0 mi NE 3.5 mph - N/A   Overcast
6:54 AM 34.2 °F 29.0 °F 32.9 °F 95% 29.55 in 10.0 mi NE 5.8 mph - N/A   Overcast
7:15 AM 34.2 °F - 32.5 °F 94% 29.56 in 10.0 mi Calm Calm - N/A   Overcast
7:34 AM 34.2 °F 31.2 °F 32.7 °F 94% 29.56 in 10.0 mi NNE 3.5 mph - N/A   Overcast
7:55 AM 34.3 °F - 32.9 °F 94% 29.56 in 3.0 mi Calm Calm - N/A   Overcast
8:15 AM 34.3 °F - 32.9 °F 94% 29.56 in 1.5 mi Calm Calm - N/A   Overcast
8:34 AM 34.5 °F - 33.1 °F 94% 29.56 in 1.5 mi Calm Calm - N/A   Overcast
8:55 AM 34.7 °F - 33.3 °F 94% 29.56 in 1.8 mi Calm Calm - N/A   Overcast
9:14 AM 35.1 °F - 33.8 °F 95% 29.57 in 3.0 mi Calm Calm - N/A   Overcast
9:34 AM 36.0 °F 33.3 °F 34.5 °F 94% 29.58 in 10.0 mi SSW 3.5 mph - N/A   Overcast
9:55 AM 36.1 °F 33.5 °F 34.3 °F 93% 29.57 in 10.0 mi SSW 3.5 mph - N/A   Overcast
10:14 AM 36.5 °F 31.8 °F 34.7 °F 93% 29.57 in 7.0 mi SSW 5.8 mph - N/A   Overcast
10:55 AM 37.4 °F 32.1 °F 35.2 °F 92% 29.58 in 7.0 mi SSW 6.9 mph - N/A   Overcast
11:14 AM 38.3 °F 34.8 °F 36.0 °F 91% 29.59 in 10.0 mi SW 4.6 mph - N/A   Overcast
11:35 AM 38.5 °F 34.1 °F 36.0 °F 91% 29.59 in 2.5 mi SW 5.8 mph - N/A   Overcast
11:55 AM 38.7 °F 34.3 °F 36.5 °F 92% 29.59 in 5.0 mi WSW 5.8 mph - N/A   Overcast
12:14 PM 39.6 °F 33.5 °F 36.9 °F 90% 29.60 in 10.0 mi WSW 9.2 mph - N/A   Overcast
12:35 PM 41.5 °F 33.2 °F 37.0 °F 84% 29.60 in 10.0 mi West 17.3 mph 20.7 mph N/A   Overcast
12:54 PM 42.4 °F 35.7 °F 37.0 °F 81% 29.60 in 10.0 mi WSW 12.7 mph 19.6 mph N/A   Overcast
1:14 PM 43.3 °F 36.5 °F 36.1 °F 76% 29.59 in 10.0 mi West 13.8 mph 17.3 mph N/A   Overcast
1:35 PM 43.9 °F 36.2 °F 35.8 °F 73% 29.59 in 10.0 mi WSW 17.3 mph 23.0 mph N/A   Overcast
1:54 PM 41.9 °F 35.4 °F 37.2 °F 83% 29.60 in 5.0 mi West 11.5 mph 19.6 mph N/A   Haze
2:14 PM 42.3 °F 34.8 °F 36.1 °F 79% 29.61 in 10.0 mi West 15.0 mph 24.2 mph N/A   Overcast
2:35 PM 40.6 °F 34.8 °F 35.4 °F 82% 29.62 in 7.0 mi WSW 9.2 mph - N/A   Overcast
2:54 PM 39.9 °F 32.9 °F 36.0 °F 86% 29.63 in 5.0 mi WSW 11.5 mph - N/A   Overcast
3:15 PM 39.4 °F 32.7 °F 34.0 °F 81% 29.64 in 10.0 mi SW 10.4 mph 20.7 mph N/A   Overcast
3:35 PM 40.6 °F 33.8 °F 32.9 °F 74% 29.64 in 10.0 mi SW 11.5 mph 19.6 mph N/A   Overcast
3:54 PM 40.8 °F 33.3 °F 32.7 °F 73% 29.64 in 10.0 mi WSW 13.8 mph 17.3 mph N/A   Overcast
4:15 PM 41.7 °F 35.2 °F 33.4 °F 72% 29.65 in 10.0 mi SW 11.5 mph 19.6 mph N/A   Overcast
4:35 PM 41.9 °F 35.9 °F 32.0 °F 68% 29.65 in 10.0 mi SW 10.4 mph - N/A   Overcast
4:54 PM 41.9 °F 35.9 °F 32.0 °F 68% 29.65 in 10.0 mi SW 10.4 mph - N/A   Overcast
5:15 PM 41.9 °F 36.9 °F 33.1 °F 71% 29.66 in 10.0 mi SW 8.1 mph 16.1 mph N/A   Overcast
5:34 PM 41.5 °F 35.4 °F 33.4 °F 73% 29.67 in 7.0 mi SW 10.4 mph - N/A   Overcast
5:54 PM 41.9 °F 35.9 °F 33.4 °F 72% 29.67 in 10.0 mi WSW 10.4 mph - N/A   Overcast
6:15 PM 40.5 °F 34.1 °F 35.1 °F 81% 29.68 in 3.0 mi WSW 10.4 mph 18.4 mph N/A   Haze
6:34 PM 40.6 °F 36.0 °F 36.0 °F 83% 29.69 in 10.0 mi SW 6.9 mph - N/A   Overcast
6:54 PM 41.0 °F 36.4 °F 36.1 °F 83% 29.69 in 10.0 mi SSW 6.9 mph - N/A   Overcast
7:14 PM 41.4 °F 36.8 °F 35.6 °F 80% 29.69 in 10.0 mi SW 6.9 mph - N/A   Overcast
7:34 PM 41.9 °F 37.5 °F 35.1 °F 77% 29.70 in 10.0 mi SW 6.9 mph - N/A   Overcast
7:55 PM 41.5 °F 35.9 °F 34.9 °F 77% 29.70 in 10.0 mi SW 9.2 mph - N/A   Overcast
8:14 PM 41.9 °F 38.2 °F 34.7 °F 76% 29.69 in 10.0 mi SSW 5.8 mph - N/A   Overcast
8:35 PM 41.7 °F 37.3 °F 35.1 °F 77% 29.70 in 10.0 mi SSW 6.9 mph - N/A   Overcast
8:55 PM 41.4 °F 36.2 °F 35.6 °F 80% 29.70 in 10.0 mi SSW 8.1 mph - N/A   Overcast
9:14 PM 41.2 °F 37.3 °F 35.8 °F 81% 29.70 in 10.0 mi SSW 5.8 mph - N/A   Overcast
9:35 PM 41.4 °F 37.6 °F 36.1 °F 82% 29.71 in 10.0 mi SSW 5.8 mph - N/A   Overcast
9:55 PM 41.4 °F 38.4 °F 36.5 °F 83% 29.71 in 10.0 mi SW 4.6 mph - N/A   Overcast
10:14 PM 41.9 °F 35.0 °F 36.0 °F 79% 29.72 in 10.0 mi WSW 12.7 mph 16.1 mph N/A   Overcast
10:35 PM 41.4 °F 36.2 °F 36.5 °F 83% 29.73 in 10.0 mi WSW 8.1 mph - N/A   Overcast
10:55 PM 41.0 °F 35.8 °F 37.0 °F 86% 29.73 in 5.0 mi WSW 8.1 mph - N/A   Overcast
11:14 PM 40.6 °F 35.4 °F 37.4 °F 88% 29.74 in 5.0 mi WSW 8.1 mph - N/A   Overcast
11:35 PM 40.5 °F 35.8 °F 38.1 °F 91% 29.74 in 4.0 mi WSW 6.9 mph - N/A   Overcast
11:54 PM 40.5 °F 35.8 °F 38.3 °F 92% 29.74 in 3.0 mi WSW 6.9 mph - N/A   Overcast